Simultaneous Nadir Overpasses (SNOs) Predictions

Prediction of SNOs between GOES-14 and NOAA-20 Satellite Orbit:

Table of predicted SNOs for the next 14.0 days since TLE Epoch: 12/31/2023
Index Date Time (GOES-14) GOES-14 Lat,Lon NOAA-20 Lat,Lon Distance(km) Time Diff (sec)
1 12/31/2023 08:55:43 -0.07,-108.60 0.86,-112.83 482.39 80
2 01/01/2024 08:39:38 -0.07,-108.60 -0.13,-108.29 34.22 80
3 01/03/2024 20:40:09 0.07,-108.58 -0.01,-109.07 54.50 80
4 01/04/2024 20:24:03 0.07,-108.58 0.98,-104.53 462.23 80
5 01/06/2024 08:43:11 -0.07,-108.59 0.19,-109.80 137.31 80
6 01/07/2024 08:27:05 -0.06,-108.58 -0.81,-105.26 379.14 80
7 01/08/2024 20:46:21 0.06,-108.56 -0.37,-110.56 226.78 80
8 01/09/2024 20:30:15 0.05,-108.56 0.63,-106.02 289.38 80
9 01/11/2024 08:49:22 -0.05,-108.56 0.53,-111.29 310.97 80
10 01/12/2024 08:33:17 -0.05,-108.55 -0.47,-106.75 204.95 80
11 01/13/2024 20:52:31 0.06,-108.52 -0.76,-112.04 401.50 80
